Weather History for Arcata, CA

Change the Weather History Date:

Friday, December 27, 2013

  Actual Average Record
Temperature  
Mean Temperature 46 °F -  
Max Temperature 53 °F 53 °F 62 °F (2000)
Min Temperature 39 °F 38 °F 32 °F (2007)
Degree Days  
Heating Degree Days 19    
Moisture  
Dew Point 40 °F    
Average Humidity 81    
Maximum Humidity 93    
Minimum Humidity 66    
Precipitation  
Precipitation 0.00 in - - ()
Sea Level Pressure  
Sea Level Pressure 30.24 in    
Wind  
Wind Speed 3 mph (ENE)    
Max Wind Speed 9 mph    
Max Gust Speed -    
Visibility 8 miles    
Events      
Averages and records for this station are not official NWS values.
T = Trace of Precipitation, MM = Missing Value Source: NWS Daily Summary

Daily Weather History Graph

Daily Weather History Graph

Search for Another Location

Airport:

Trip Planner

Search our weather history database for the weather conditions in past years. The results will help you decide how hot, cold, wet, or windy it might be!

Date:

Astronomy

Dec. 27, 2013 Rise Set
Actual Time 7:40 AM PST 4:55 PM PST
Civil Twilight 7:09 AM PST 5:26 PM PST
Nautical Twilight 6:34 AM PST 6:00 PM PST
Astronomical Twilight 6:01 AM PST 6:34 PM PST
Moon 2:16 AM PST (12/27) 1:10 PM PST (12/27)
Length of Visible Light 10h 17m
Length of Day
9h 14m
Waning Crescent, 27% of the Moon is Illuminated
Dec 27
Waning Crescent
Jan 1
New
Jan 7
First Quarter
Jan 15
Full
Jan 23
Last Quarter

Hourly Weather History & Observations

Time (PST) Temp. Windchill Dew Point Humidity Pressure Visibility Wind Dir Wind Speed Gust Speed Precip Events Conditions
12:53 AM 41.0 °F 38.0 °F 34.0 °F 76% 30.20 in 10.0 mi East 4.6 mph - N/A   Clear
1:53 AM 39.0 °F - 33.1 °F 79% 30.21 in 10.0 mi Calm Calm - N/A   Clear
2:53 AM 39.9 °F 37.8 °F 34.0 °F 79% 30.23 in 10.0 mi East 3.5 mph - N/A   Clear
3:53 AM 39.9 °F 37.8 °F 33.1 °F 77% 30.20 in 10.0 mi SE 3.5 mph - N/A   Clear
4:53 AM 41.0 °F 35.8 °F 33.1 °F 73% 30.19 in 10.0 mi East 8.1 mph - N/A   Clear
5:53 AM 39.9 °F - 33.1 °F 77% 30.20 in 10.0 mi Calm Calm - N/A   Clear
6:53 AM 39.9 °F - 33.1 °F 77% 30.20 in 10.0 mi Calm Calm - N/A   Clear
7:53 AM 39.9 °F 35.1 °F 34.0 °F 79% 30.20 in 10.0 mi East 6.9 mph - N/A   Clear
8:53 AM 42.1 °F - 37.0 °F 82% 30.25 in 10.0 mi Calm Calm - N/A   Clear
9:53 AM 46.0 °F - 37.9 °F 73% 30.27 in 10.0 mi Calm Calm - N/A   Clear
10:39 AM 45.0 °F 43.5 °F 37.9 °F 76% 30.27 in 2.5 mi NNW 3.5 mph - N/A   Haze
10:48 AM 46.4 °F - 39.2 °F 76% 30.27 in 1.5 mi Calm Calm - N/A   Haze
10:53 AM 46.9 °F - 39.0 °F 74% 30.29 in 2.0 mi Calm Calm - N/A   Haze
11:04 AM 46.9 °F - 39.9 °F 77% 30.27 in 3.0 mi Calm Calm - N/A   Haze
11:53 AM 53.1 °F - 42.1 °F 66% 30.26 in 10.0 mi WSW 4.6 mph - N/A   Clear
12:53 PM 51.1 °F - 44.1 °F 77% 30.25 in 9.0 mi WNW 9.2 mph - N/A   Clear
1:53 PM 52.0 °F - 43.0 °F 71% 30.25 in 10.0 mi West 3.5 mph - N/A   Clear
2:53 PM 52.0 °F - 45.0 °F 77% 30.23 in 9.0 mi West 4.6 mph - N/A   Clear
3:53 PM 51.1 °F - 45.0 °F 80% 30.23 in 10.0 mi WNW 4.6 mph - N/A   Clear
4:53 PM 48.0 °F - 44.1 °F 86% 30.25 in 4.0 mi Calm Calm - N/A   Clear
5:13 PM 46.0 °F 44.8 °F 43.0 °F 89% 30.23 in 6.0 mi NNW 3.5 mph - N/A   Scattered Clouds
5:21 PM 45.0 °F - 43.0 °F 93% 30.23 in 6.0 mi Calm Calm - N/A   Mostly Cloudy
5:53 PM 46.9 °F - 44.1 °F 90% 30.25 in 7.0 mi Calm Calm - N/A   Overcast
6:04 PM 46.9 °F - 43.0 °F 86% 30.22 in 8.0 mi Calm Calm - N/A   Overcast
6:53 PM 48.0 °F - 44.1 °F 86% 30.25 in 10.0 mi Calm Calm - N/A   Overcast
7:53 PM 48.0 °F - 45.0 °F 89% 30.25 in 8.0 mi Calm Calm - N/A   Overcast
8:53 PM 46.9 °F - 44.1 °F 90% 30.25 in 9.0 mi ESE 3.5 mph - N/A   Overcast
9:53 PM 46.9 °F - 43.0 °F 86% 30.25 in 10.0 mi NNE 4.6 mph - N/A   Overcast
10:53 PM 46.0 °F 43.9 °F 43.0 °F 89% 30.25 in 10.0 mi ENE 4.6 mph - N/A   Overcast
11:53 PM 45.0 °F 42.6 °F 41.0 °F 86% 30.27 in 10.0 mi ESE 4.6 mph - N/A   Overcast